Location: Marstown
(39.5056°N, 77.0820°W)
Time: 00:51:35
(UTC-04:00)

Tiangong 2 - Visible Passes

Search period start: 23 July 2017 00:00
Search period end: 02 August 2017 00:00
Orbit: 392 x 394 km, 42.8° (Epoch: 22 July)

Date Brightness Start Highest point End Pass type
(mag) Time Alt. Az. Time Alt. Az. Time Alt. Az.
23 Jul 1.1 22:16:27 10° WNW 22:19:39 62° SSW 22:19:50 60° S visible
24 Jul 1.1 21:19:36 10° WNW 21:22:49 86° NNE 21:25:25 15° ESE visible
24 Jul 3.8 22:57:04 10° W 22:57:47 14° WSW 22:57:47 14° WSW visible
25 Jul 2.1 21:59:51 10° W 22:02:47 32° SSW 22:03:23 30° S visible
26 Jul 1.5 21:02:52 10° WNW 21:06:01 54° SSW 21:09:01 11° SE visible
27 Jul 3.2 21:43:36 10° WSW 21:45:48 17° SW 21:47:05 14° S visible
